Stations météo

Publicité
Aurillac, France (7549): Température de l'air & dewpoint: 10.08.2017 17:00:00 - 16.08.2017 17:00:00 (CEST)Aurillac, France (7549): Température de l'air 5cm: 10.08.2017 17:00:00 - 16.08.2017 17:00:00 (CEST)Aurillac, France (7549): Température de l'air -20cm & Température de l'air -100cm: 10.08.2017 17:00:00 - 16.08.2017 17:00:00 (CEST)Aurillac, France (7549): Vitesse du vent & gusts: 10.08.2017 17:00:00 - 16.08.2017 17:00:00 (CEST)Aurillac, France (7549): Direction du vent: 10.08.2017 17:00:00 - 16.08.2017 17:00:00 (CEST)Aurillac, France (7549): reduced air pressure: 10.08.2017 17:00:00 - 16.08.2017 17:00:00 (CEST)Aurillac, France (7549): visibility: 10.08.2017 17:00:00 - 16.08.2017 17:00:00 (CEST)Aurillac, France (7549): Ensoleillement: 10.08.2017 17:00:00 - 16.08.2017 17:00:00 (CEST)Aurillac, France (7549): Quantités de précipitations: 10.08.2017 17:00:00 - 16.08.2017 17:00:00 (CEST)
Date & Time tt [°C] td [°C] tt 5cm [°C] tt -20cm [°C] tt -100cm [°C] ff [km/h] ff [knt] fx [km/h] fx [knt] dd ppp [hPa] vv [km] sd [min] rr [mm]
16.08.2017 17:00:00 23,4 16,2 27,8 19,7 17,9 13 7 24 13 WNW 1019,1 19 47 0,0
16.08.2017 16:00:00 23,8 16,6 27,1 19,7 17,9 14 7 24 13 WNW 1019,0 17 25 0,0
16.08.2017 15:00:00 23,4 16,7 26,6 19,7 17,9 14 8 21 11 WNW 1019,3 20 25 0,0
16.08.2017 14:00:00 22,9 16,2 26,9 19,7 17,9 11 6 19 11 NW 1019,5 58 12 0,0
16.08.2017 13:00:00 22,0 17,6 25,2 19,7 17,9 9 5 16 8 WNW 1020,0 19 20 0,0
16.08.2017 12:00:00 20,9 16,7 24,2 19,7 17,9 4 2 9 5 NW 1020,2 20 1 0,0
16.08.2017 11:00:00 19,3 16,9 21,1 19,8 17,9 3 2 7 4 W 1020,5 36 0 0,0
16.08.2017 10:00:00 17,8 14,9 17,4 19,8 17,9 3 2 6 3 E 1020,8 20 0 0,0
16.08.2017 09:00:00 15,5 14,4 15,3 19,9 17,9 4 2 6 3 ESE 1021,3 16 0 0,0
16.08.2017 08:00:00 14,3 14,0 13,2 19,9 17,9 4 2 6 3 SE 1021,6 13 0 0,0
16.08.2017 07:00:00 13,5 13,3 9,8 20,0 17,9 0 0 5 3 N 1021,5 8 0 0,0
16.08.2017 06:00:00 13,3 12,8 9,9 20,0 17,9 0 0 6 3 N 1021,0 11 0 0,0
16.08.2017 05:00:00 13,8 13,2 10,4 20,0 17,9 4 2 5 3 ESE 1020,9 17 0 0,0
16.08.2017 04:00:00 14,7 13,7 11,4 20,1 17,9 3 2 15 8 N 1021,2 38 0 0,0
16.08.2017 03:00:00 15,3 14,3 12,4 20,1 17,9 3 2 11 6 E 1021,3 20 0 0,0
16.08.2017 02:00:00 16,5 14,3 14,9 20,1 17,9 6 3 10 6 NE 1021,5 19 0 0,0
16.08.2017 01:00:00 17,1 14,9 15,0 20,1 17,9 0 0 11 6 N 1021,7 20 0 0,0
16.08.2017 00:00:00 17,7 15,7 15,2 20,1 17,9 6 4 14 7 NW 1021,2 44 0 0,0
15.08.2017 23:00:00 18,4 15,5 17,2 20,1 17,9 10 6 18 10 SE 1020,5 10 0 0,0
15.08.2017 22:00:00 18,5 16,8 17,4 20,1 17,9 10 5 21 11 SE 1019,8 9 0 0,0
15.08.2017 21:00:00 18,9 17,0 17,4 20,1 17,9 4 2 14 8 NNE 1019,2 12 0 0,0
15.08.2017 20:00:00 20,2 17,4 19,7 20,0 17,9 6 3 13 7 WNW 1019,2 20 0 0,0
15.08.2017 19:00:00 20,9 16,9 21,0 20,0 17,9 8 4 16 9 NW 1018,8 53 2 0,0
15.08.2017 18:00:00 22,4 15,5 22,4 20,0 17,9 8 4 18 10 WNW 1018,3 59 11 0,0
15.08.2017 17:00:00 21,0 15,8 20,4 20,0 17,9 13 7 25 14 ENE 1017,9 8 0 0,0
15.08.2017 16:00:00 20,0 16,4 18,8 19,9 17,9 16 8 23 12 ESE 1019,3 8 0 0,0
15.08.2017 15:00:00 20,2 15,2 20,3 19,9 17,9 8 4 27 14 ENE 1019,7 11 0 0,0
15.08.2017 14:00:00 21,0 15,5 21,8 19,9 17,9 18 10 34 18 NW 1019,6 20 1 0,0
15.08.2017 13:00:00 22,1 15,9 23,5 19,9 17,9 16 8 21 12 NW 1018,1 58 7 0,0
15.08.2017 12:00:00 23,8 15,6 24,2 20,0 17,9 9 5 20 11 WSW 1017,1 20 30 0,0
15.08.2017 11:00:00 22,6 14,9 20,5 20,0 17,9 11 6 19 11 SE 1016,8 15 58 0,0
15.08.2017 10:00:00 18,8 13,6 17,1 20,1 17,9 10 5 26 14 ESE 1017,3 14 0 0,0
15.08.2017 09:00:00 17,1 12,6 14,5 20,1 17,9 14 8 33 18 E 1018,1 13 0 0,0
15.08.2017 08:00:00 17,7 12,2 15,5 20,1 17,9 12 6 18 10 E 1019,3 16 0 0,0
15.08.2017 07:00:00 17,4 11,7 15,8 20,2 17,9 4 2 19 11 SW 1019,6 20 0 0,0
15.08.2017 06:00:00 18,0 12,0 16,6 20,2 17,9 7 4 19 11 ESE 1018,8 19 0 0,0
15.08.2017 05:00:00 18,2 11,7 15,8 20,2 17,9 13 7 21 11 E 1018,1 17 0 0,0
15.08.2017 04:00:00 17,9 11,7 14,6 20,3 17,9 10 6 19 10 E 1019,1 18 0 0,0
15.08.2017 03:00:00 19,2 11,2 16,4 20,3 17,9 10 5 46 25 W 1019,2 60 0 0,0
15.08.2017 02:00:00 19,9 11,9 17,9 20,3 17,9 14 8 26 14 E 1017,3 60 0 0,0
15.08.2017 01:00:00 19,8 12,3 18,3 20,2 18,0 16 8 24 13 E 1017,0 60 0 0,0
15.08.2017 00:00:00 20,9 12,3 19,2 20,2 17,9 15 8 24 13 E 1016,5 60 0 0,0
14.08.2017 23:00:00 21,3 12,4 18,5 20,1 17,9 13 7 20 11 E 1016,5 8 0 0,0
14.08.2017 22:00:00 21,9 13,0 18,7 20,0 18,0 9 5 20 11 E 1016,1 8 0 0,0
14.08.2017 21:00:00 23,1 13,6 19,2 19,9 18,0 8 4 15 8 E 1015,1 8 24 0,0
14.08.2017 20:00:00 25,3 13,8 23,5 19,7 18,0 12 6 25 14 SE 1014,1 9 60 0,0
14.08.2017 19:00:00 27,2 13,5 27,9 19,6 18,0 16 9 27 15 SSE 1013,5 12 60 0,0
14.08.2017 18:00:00 28,2 14,4 31,2 19,4 18,0 16 9 28 15 SE 1013,3 11 60 0,0
14.08.2017 17:00:00 28,6 14,4 34,1 19,3 18,0 14 8 27 14 SSE 1013,4 12 60 0,0
14.08.2017 16:00:00 28,0 15,6 33,9 19,2 18,0 14 8 27 15 S 1013,6 14 60 0,0
14.08.2017 15:00:00 27,6 15,9 32,1 19,2 18,0 13 7 27 14 SSE 1014,2 13 60 0,0
14.08.2017 14:00:00 26,5 15,5 31,5 19,2 18,0 16 9 29 15 SSE 1014,7 14 60 0,0
14.08.2017 13:00:00 25,1 14,8 31,1 19,2 18,0 18 10 31 17 SE 1015,4 15 60 0,0
14.08.2017 12:00:00 24,1 15,6 28,7 19,2 18,0 15 8 26 14 SE 1016,1 14 60 0,0
14.08.2017 11:00:00 22,8 15,4 26,3 19,2 18,0 15 8 29 16 SE 1016,5 16 60 0,0
14.08.2017 10:00:00 21,5 14,9 22,2 19,3 18,0 12 7 19 11 SE 1016,8 14 60 0,0
14.08.2017 09:00:00 18,7 14,4 15,1 19,3 18,0 10 5 19 10 E 1017,4 14 60 0,0
14.08.2017 08:00:00 15,6 13,1 12,5 19,4 18,0 14 8 20 11 E 1018,1 18 49 0,0
14.08.2017 07:00:00 14,1 12,5 11,9 19,5 18,0 14 8 19 10 E 1018,3 16 0 0,0
14.08.2017 06:00:00 14,4 12,6 11,5 19,5 18,0 13 7 16 9 E 1018,3 16 0 0,2
14.08.2017 05:00:00 13,7 12,4 10,9 19,5 18,0 11 6 14 8 E 1018,7 16 0 0,0
14.08.2017 04:00:00 14,1 12,5 11,5 19,5 18,0 10 5 14 7 E 1018,8 60 0 0,0
14.08.2017 03:00:00 14,1 12,7 10,8 19,6 18,0 8 4 11 6 E 1018,7 60 0 0,0
14.08.2017 02:00:00 13,7 13,2 11,0 19,6 18,0 5 3 8 4 ESE 1019,1 11 0 0,0
14.08.2017 01:00:00 14,2 13,6 11,5 19,5 18,0 4 2 9 5 ESE 1019,3 34 0 0,0
14.08.2017 00:00:00 14,8 14,0 12,0 19,5 18,0 5 3 7 4 ENE 1019,4 53 0 0,0
13.08.2017 23:00:00 16,3 14,5 12,4 19,4 18,0 4 2 6 4 ESE 1019,1 60 0 0,0
13.08.2017 22:00:00 18,4 14,7 13,1 19,3 18,0 2 1 8 5 WSW 1018,6 60 0 0,0
13.08.2017 21:00:00 20,2 14,8 16,8 19,2 18,1 7 4 13 7 NW 1017,7 60 37 0,0
13.08.2017 20:00:00 22,2 15,1 21,0 19,0 18,0 9 5 17 9 NNW 1017,2 56 60 0,0
13.08.2017 19:00:00 23,1 14,6 24,5 18,9 18,0 12 6 27 15 NW 1017,1 60 60 0,0
13.08.2017 18:00:00 23,3 14,0 24,7 18,8 18,1 11 6 22 12 NW 1017,4 60 58 0,0
13.08.2017 17:00:00 23,0 15,1 27,4 18,7 18,0 10 6 25 13 NW 1017,8 58 57 0,0
13.08.2017 16:00:00 22,5 15,1 26,2 18,6 18,1 13 7 26 14 NW 1018,2 60 48 0,0
13.08.2017 15:00:00 22,4 14,8 28,2 18,5 18,0 11 6 23 12 NNW 1018,3 60 53 0,0
13.08.2017 14:00:00 22,4 14,8 30,8 18,5 18,1 11 6 22 12 WNW 1018,6 60 57 0,0
13.08.2017 13:00:00 21,7 15,1 31,9 18,5 18,1 5 3 16 9 W 1019,2 59 60 0,0
13.08.2017 12:00:00 19,8 14,6 29,8 18,5 18,1 5 3 17 9 WNW 1020,1 20 60 0,0
13.08.2017 11:00:00 18,7 13,8 25,7 18,5 18,1 6 4 12 6 NW 1020,4 59 60 0,0
13.08.2017 10:00:00 16,8 12,5 21,5 18,6 18,1 4 2 8 4 WSW 1020,8 55 60 0,0
13.08.2017 09:00:00 15,6 12,5 13,5 18,6 18,1 0 0 4 2 N 1021,1 17 60 0,0
13.08.2017 08:00:00 11,8 11,6 8,4 18,7 18,1 2 1 3 2 SSE 1021,7 1,1 29 0,0
13.08.2017 07:00:00 11,0 10,8 8,4 18,7 18,1 4 2 6 3 E 1021,9 0,3 0 0,0
13.08.2017 06:00:00 11,4 11,2 9,8 18,7 18,1 3 2 5 3 E 1021,8 10 0 0,0
13.08.2017 05:00:00 11,6 11,3 10,1 18,8 18,1 3 2 4 2 SE 1022,1 10 0 0,0
13.08.2017 04:00:00 11,7 11,4 10,6 18,8 18,1 3 1 6 4 ENE 1022,5 14 0 0,0
13.08.2017 03:00:00 12,0 11,4 10,8 18,8 18,1 0 0 5 3 N 1022,6 15 0 0,0
13.08.2017 02:00:00 12,5 11,9 11,3 18,8 18,1 0 0 7 4 N 1023,1 17 0 0,0
13.08.2017 01:00:00 13,0 11,9 9,9 18,8 18,1 4 2 5 3 WNW 1023,2 32 0 0,0
13.08.2017 00:00:00 13,2 11,9 11,3 18,7 18,1 3 2 6 3 SW 1023,1 42 0 0,0
12.08.2017 23:00:00 13,5 12,2 12,3 18,6 18,1 3 2 8 4 W 1023,4 48 0 0,0
12.08.2017 22:00:00 13,9 12,3 12,1 18,6 18,1 4 2 11 6 W 1023,2 49 0 0,0
12.08.2017 21:00:00 15,1 12,4 13,5 18,5 18,1 10 5 22 12 WNW 1022,4 60 20 0,0
12.08.2017 20:00:00 17,3 13,0 17,1 18,3 18,2 14 7 25 14 WNW 1021,7 60 60 0,0
12.08.2017 19:00:00 18,2 12,9 20,6 18,2 18,2 16 8 27 15 NW 1021,3 48 60 0,0
12.08.2017 18:00:00 18,9 12,6 24,6 18,1 18,2 17 9 26 14 NW 1021,4 58 60 0,0
12.08.2017 17:00:00 18,8 11,8 26,9 18,0 18,2 16 9 24 13 WNW 1021,8 20 60 0,0
12.08.2017 16:00:00 19,2 12,5 27,2 17,9 18,2 13 7 25 13 WNW 1021,8 60 60 0,0
12.08.2017 15:00:00 17,6 10,0 27,2 17,9 18,2 13 7 34 19 NW 1022,6 60 60 0,0
12.08.2017 14:00:00 17,0 8,9 26,7 17,9 18,2 14 8 23 13 WNW 1023,3 20 60 0,0
12.08.2017 13:00:00 16,2 8,9 24,2 17,9 18,2 13 7 20 11 NW 1023,8 19 58 0,0
12.08.2017 12:00:00 15,5 10,9 22,5 17,9 18,2 11 6 19 11 W 1023,8 60 58 0,0
12.08.2017 11:00:00 12,8 11,4 19,6 17,9 18,2 11 6 18 10 NW 1024,7 15 50 0,0
12.08.2017 10:00:00 11,8 11,5 13,2 18,0 18,2 6 3 16 9 NW 1024,4 8 45 0,0
12.08.2017 09:00:00 9,5 9,5 9,4 18,0 18,2 3 2 7 4 SSE 1024,8 0,3 26 0,0
12.08.2017 08:00:00 7,9 7,9 8,6 18,0 18,2 5 3 8 4 E 1024,8 0,1 0 0,2
12.08.2017 07:00:00 8,2 8,2 8,6 18,1 18,2 3 2 5 3 ESE 1024,5 0,1 0 0,0
12.08.2017 06:00:00 8,7 8,7 5,3 18,1 18,2 3 2 6 4 ESE 1024,0 0,1 0 0,0
12.08.2017 05:00:00 8,2 8,1 4,3 18,2 18,2 0 0 6 3 N 1024,7 0,1 0 0,0
12.08.2017 04:00:00 9,6 9,6 8,8 18,2 18,2 4 2 5 3 NE 1024,5 0,2 0 0,0
12.08.2017 03:00:00 10,2 10,0 6,7 18,3 18,2 0 0 4 2 N 1024,2 0,1 0 0,0
12.08.2017 02:00:00 10,0 9,7 6,0 18,3 18,2 0 0 6 3 N 1024,6 0,3 0 0,0
12.08.2017 01:00:00 10,8 10,2 7,5 18,3 18,2 5 3 9 5 W 1024,7 10 0 0,0
12.08.2017 00:00:00 11,8 11,0 11,3 18,3 18,2 4 2 9 5 NNW 1024,4 11 0 0,0
11.08.2017 23:00:00 11,7 11,1 10,3 18,3 18,2 6 3 12 7 NW 1024,5 19 0 0,0
11.08.2017 22:00:00 12,2 10,9 11,2 18,3 18,2 9 5 20 11 WNW 1023,9 37 0 0,0
11.08.2017 21:00:00 12,8 11,0 12,6 18,3 18,2 12 6 26 14 NW 1023,4 57 0 0,0
11.08.2017 20:00:00 13,4 10,9 13,0 18,3 18,2 14 8 28 15 NW 1023,0 60 1 0,0
11.08.2017 19:00:00 14,0 11,0 15,0 18,3 18,2 14 7 29 16 NW 1022,3 60 11 0,0
11.08.2017 18:00:00 14,5 10,3 15,5 18,3 18,2 19 10 32 18 NW 1022,2 60 13 0,2
11.08.2017 17:00:00 13,9 11,4 13,8 18,3 18,2 21 11 34 18 WNW 1022,5 60 5 0,0
11.08.2017 16:00:00 13,6 12,2 13,5 18,3 18,2 20 11 32 18 WNW 1022,5 60 6 0,0
11.08.2017 15:00:00 11,9 11,1 12,4 18,4 18,2 16 9 30 16 NW 1023,1 16 0 1,0
11.08.2017 14:00:00 11,6 11,0 12,6 18,4 18,3 17 9 29 16 WNW 1022,8 17 0 0,6
11.08.2017 13:00:00 11,5 10,9 11,7 18,5 18,2 15 8 24 13 WNW 1022,8 10 0 1,8
11.08.2017 12:00:00 10,9 10,4 11,5 18,5 18,2 14 8 29 16 WNW 1022,9 3,9 0 0,2
11.08.2017 11:00:00 10,5 10,2 10,9 18,6 18,2 14 8 21 11 WNW 1022,6 6 0 0,4
11.08.2017 10:00:00 10,0 9,7 10,3 18,6 18,2 11 6 17 9 WNW 1022,7 5 0 0,8
11.08.2017 09:00:00 9,8 9,3 10,2 18,7 18,3 8 4 16 9 W 1022,4 15 0 0,0
11.08.2017 08:00:00 9,8 9,3 9,6 18,7 18,3 7 4 12 7 WNW 1022,2 16 0 0,0
11.08.2017 07:00:00 9,6 8,8 9,4 18,8 18,3 9 5 17 9 WNW 1022,0 20 0 0,0
11.08.2017 06:00:00 9,6 9,0 9,2 18,8 18,2 11 6 22 12 WNW 1021,9 43 0 0,0
11.08.2017 05:00:00 10,1 9,5 10,2 18,9 18,2 14 8 21 11 WNW 1021,7 48 0 0,0
11.08.2017 04:00:00 10,5 9,9 10,2 19,0 18,3 15 8 26 14 WNW 1021,6 20 0 0,0
11.08.2017 03:00:00 10,8 10,0 10,3 19,0 18,3 18 10 31 17 WNW 1021,6 47 0 0,2
11.08.2017 02:00:00 11,2 10,7 11,2 19,0 18,3 14 8 23 12 WNW 1021,7 20 0 0,2
11.08.2017 01:00:00 11,3 10,7 11,2 19,0 18,3 16 9 27 14 WNW 1022,0 41 0 0,4
11.08.2017 00:00:00 11,4 10,8 11,3 19,1 18,3 18 10 34 18 W 1021,7 20 0 0,2
10.08.2017 23:00:00 11,8 11,2 11,5 19,1 18,3 13 7 29 16 W 1021,4 18 0 0,4
10.08.2017 22:00:00 11,7 10,9 11,5 19,0 18,3 16 8 24 13 W 1021,3 2,3 0 1,8
10.08.2017 21:00:00 12,8 11,4 12,5 19,0 18,3 10 5 23 12 W 1020,7 17 0 0,2
10.08.2017 20:00:00 13,6 10,9 13,7 19,0 18,2 12 6 28 15 W 1020,4 60 6 0,0
10.08.2017 19:00:00 15,0 11,4 16,2 19,0 18,3 15 8 24 13 W 1019,7 60 21 0,0
10.08.2017 18:00:00 15,6 11,2 19,4 19,0 18,3 16 9 29 16 W 1019,3 20 44 0,0
10.08.2017 17:00:00 15,0 12,1 17,7 18,9 18,3 18 10 32 17 W 1019,8 19 19 0,0

tt = Température de l'air
td = dewpoint
tt 5cm = Température de l'air 5cm
tt -20cm = Température de l'air -20cm
tt -100cm = Température de l'air -100cm
ff = Vitesse du vent
fx = gusts
dd = Direction du vent
ppp = reduced air pressure
vv = visibility
sd = Ensoleillement
rr = Quantités de précipitations

stations d'obs. à proximité